User: anonymous   Login
Location: Irma
(52.9170°N, 111.2330°W)
Time: 06:54:06
(UTC-06:00)
Language:

Cosmos 2279 Rocket - Orbit

View from above orbital plane
View from above orbital plane
View from above satellite
View from above satellite

Ground track
Ground track

The orbit data is extracted from the following two-line orbital elements,

1 23093U 94024B   15245.51950016 -.00000078  00000-0 -93311-4 0  9998
2 23093  82.9441 240.6147 0011042  42.8055 317.3960 13.77670890541426
Epoch (UTC): 02 September 2015 12:28:04
Eccentricity: 0.0011042
inclination: 82.9441°
perigee height: 964 km
apogee height: 980 km
right ascension of ascending node: 240.6147°
argument of perigee: 42.8055°
revolutions per day: 13.77670890
mean anomaly at epoch: 317.3960°
orbit number at epoch: 54142

The dashed part of the orbit path shows where the satellite is in the earth's shadow,  

DLR